Pierre, SD

7:05 AM CDT on October 18, 2017 (GMT -0500)
Pierre Regional

Weather History for KPIR - June, 2013

Change the Weather History Date:

Saturday, June 29, 2013

  Actual Average Record
Temperature  
Mean Temperature 72 °F 72 °F  
Max Temperature 84 °F 85 °F 108 °F (1963)
Min Temperature 59 °F 59 °F 41 °F (1985)
Degree Days  
Heating Degree Days 0 1  
Month to date heating degree days 60 55  
Since 1 June heating degree days 60 55  
Since 1 July heating degree days 7676 7292  
Cooling Degree Days 7 8  
Month to date cooling degree days 115 126  
Year to date cooling degree days 137 158  
Since 1 June cooling degree days 115 126  
Growing Degree Days 21 (Base 50)    
Moisture  
Dew Point 54 °F    
Average Humidity 59    
Maximum Humidity 84    
Minimum Humidity 33    
Precipitation  
Precipitation 0.00 in 0.10 in 0.75 in (1991)
Month to date precipitation 2.93 3.48  
Year to date precipitation 11.79 10.68  
Sea Level Pressure  
Sea Level Pressure 30.02 in    
Wind  
Wind Speed 11 mph (NNW)    
Max Wind Speed 23 mph    
Max Gust Speed 31 mph    
Visibility 10 miles    
Events      
T = Trace of Precipitation, MM = Missing Value Source: NWS Daily Summary

Daily Weather History Graph

Daily Weather History Graph

Search for Another Location

Airport or City:

Trip Planner

Search our weather history database for the weather conditions in past years. The results will help you decide how hot, cold, wet, or windy it might be!

Date:

Astronomy

Jun. 29, 2013 Rise Set
Actual Time 5:59 AM CDT 9:29 PM CDT
Civil Twilight 5:23 AM CDT 10:05 PM CDT
Nautical Twilight 4:35 AM CDT 10:54 PM CDT
Astronomical Twilight 3:33 AM CDT 11:55 PM CDT
Moon 12:43 AM CDT (6/29) 1:31 PM CDT (6/29)
Length of Visible Light 16h 42m
Length of Day
15h 29m
Waning Gibbous, 55% of the Moon is Illuminated
Jun 29
Waning Gibbous
Jun 29
Last Quarter
Jul 8
New
Jul 15
First Quarter
Jul 22
Full

Hourly Weather History & Observations

Time (CDT) Temp. Dew Point Humidity Pressure Visibility Wind Dir Wind Speed Gust Speed Precip Events Conditions
12:53 AM 68.0 °F 54.0 °F 61% 30.00 in 10.0 mi NNW 9.2 mph - N/A   Clear
1:53 AM 64.0 °F 55.9 °F 75% 30.01 in 10.0 mi NW 10.4 mph - N/A   Clear
2:53 AM 64.0 °F 55.9 °F 75% 30.01 in 10.0 mi NW 10.4 mph - N/A   Clear
3:53 AM 60.1 °F 55.9 °F 86% 30.03 in 10.0 mi NW 9.2 mph - N/A   Clear
4:53 AM 63.0 °F 55.9 °F 78% 30.04 in 10.0 mi NW 10.4 mph - N/A   Clear
5:53 AM 61.0 °F 55.0 °F 81% 30.05 in 10.0 mi NW 10.4 mph - N/A   Clear
6:53 AM 60.1 °F 55.9 °F 86% 30.06 in 10.0 mi WNW 9.2 mph - N/A   Clear
7:53 AM 66.0 °F 57.0 °F 73% 30.05 in 10.0 mi NW 12.7 mph - N/A   Clear
8:53 AM 69.1 °F 57.0 °F 65% 30.05 in 10.0 mi NW 9.2 mph - N/A   Clear
9:53 AM 73.0 °F 57.9 °F 59% 30.05 in 10.0 mi WNW 9.2 mph - N/A   Clear
10:53 AM 77.0 °F 54.0 °F 45% 30.04 in 10.0 mi NNW 13.8 mph - N/A   Clear
11:53 AM 79.0 °F 52.0 °F 39% 30.03 in 10.0 mi NNW 11.5 mph 24.2 mph N/A   Partly Cloudy
12:53 PM 81.0 °F 52.0 °F 36% 30.02 in 10.0 mi North 12.7 mph 31.1 mph N/A   Partly Cloudy
1:53 PM 82.0 °F 52.0 °F 35% 30.02 in 10.0 mi North 20.7 mph 26.5 mph N/A   Scattered Clouds
2:53 PM 82.9 °F 51.1 °F 33% 30.01 in 10.0 mi North 17.3 mph 28.8 mph N/A   Scattered Clouds
3:53 PM 81.0 °F 50.0 °F 34% 30.01 in 10.0 mi North 18.4 mph 23.0 mph N/A   Mostly Cloudy
4:53 PM 81.0 °F 48.0 °F 31% 30.00 in 10.0 mi NNW 17.3 mph 25.3 mph N/A   Scattered Clouds
5:53 PM 82.0 °F 52.0 °F 35% 30.00 in 10.0 mi North 16.1 mph 23.0 mph N/A   Scattered Clouds
6:53 PM 79.0 °F 51.1 °F 38% 30.00 in 10.0 mi North 17.3 mph 20.7 mph N/A   Partly Cloudy
7:53 PM 79.0 °F 53.1 °F 40% 29.99 in 10.0 mi NNE 10.4 mph - N/A   Partly Cloudy
8:53 PM 73.0 °F 55.9 °F 55% 29.99 in 10.0 mi NE 5.8 mph - N/A   Clear
9:53 PM 66.9 °F 55.9 °F 68% 30.01 in 10.0 mi NE 3.5 mph - N/A   Clear
10:53 PM 66.0 °F 55.0 °F 68% 30.03 in 10.0 mi Calm Calm - N/A   Clear
11:53 PM 64.0 °F 55.0 °F 73% 30.05 in 10.0 mi Calm Calm - N/A   Clear